sat.trackr.live / text

‹ back to catalog

KUIPER-00193

NORAD 68576 · 2026-072D

PAYLOAD ACTIVE UNKNOWN

§ Identity

Operator
Country
US
Launch date
2026-04-04
Launch site
AFETR
Launch vehicle
Mass (kg)
RCS (m²)

External: N2YO · Heavens-Above · Gunter

§ Orbital elements

Epoch: 2026-09-19T23:34:54.378912Z

Period
97.30 min
Inclination
51.9048°
Eccentricity
0.0001073
Mean motion
14.79933888 rev/d
Perigee alt
628.8 km
Apogee alt
630.3 km
Semi-major
7,007.7 km
B*
2.8619e-4
RAAN
124.0111°
Arg perigee
110.3425°
Mean anomaly
249.7653°
Rev number
2,533

§ Raw data

KUIPER-001931 68576U 26072D   26262.98257383  .00001961  00000+0  28619-3 0  99972 68576  51.9048 124.0111 0001073 110.3425 249.7653 14.79933888 25337

JSON: /api/v1/satellites/68576 · /tle

For live sub-satellite position, see the globe view (requires WebGL).

§ Visibility from observer

Set your observer location to see the next 7 days of passes ≥ 10°. The values pass through the URL so the page stays shareable.

No JS? Fill the form by hand. The geolocation button needs JavaScript.